Location: Marengo
(51.4813°N, 109.7825°W)
Time: 15:03:56
(UTC+00:00)

Envisat - Visible Passes

Search period start: 24 January 2022 00:00
Search period end: 03 February 2022 00:00
Orbit: 764 x 766 km, 98.2° (Epoch: 23 January)

Date Brightness Start Highest point End Pass type
(mag) Time Alt. Az. Time Alt. Az. Time Alt. Az.
24 Jan 6.0 10:38:07 10° ENE 10:39:28 11° E 10:40:49 10° E visible
24 Jan 3.2 12:14:22 10° NNE 12:19:28 69° ESE 12:24:31 10° S visible
24 Jan 4.1 13:54:09 10° N 13:58:02 23° WNW 14:01:55 10° WSW visible
25 Jan 4.5 11:37:44 10° NNE 11:42:24 35° E 11:47:01 10° SSE visible
25 Jan 3.4 13:16:45 10° N 13:21:29 40° WNW 13:26:12 10° SW visible
26 Jan 5.8 00:38:32 10° SW 00:42:00 18° W 00:45:28 10° NW visible
26 Jan 5.5 11:01:41 10° NE 11:05:09 18° E 11:08:35 10° SE visible
26 Jan 2.8 12:39:39 10° NNE 12:44:45 76° WNW 12:49:49 10° SSW visible
26 Jan 4.5 14:20:05 10° NNW 14:22:59 15° NW 14:25:52 10° W visible
27 Jan 3.6 12:02:48 10° NNE 12:07:50 56° E 12:12:49 10° S visible
27 Jan 3.9 13:42:21 10° N 13:46:34 27° WNW 13:50:45 10° WSW visible
28 Jan 6.3 01:06:19 10° W 01:07:40 11° W 01:09:02 10° WNW visible
28 Jan 4.8 11:26:19 10° NNE 11:30:43 28° E 11:35:05 10° SSE visible
28 Jan 3.2 13:05:04 10° N 13:09:57 48° WNW 13:14:49 10° SW visible
29 Jan 5.7 10:50:34 10° NE 10:53:23 15° E 10:56:11 10° ESE visible
29 Jan 2.9 12:28:02 10° NNE 12:33:10 88° ESE 12:38:15 10° SSW visible
29 Jan 4.4 14:08:09 10° NNW 14:11:33 18° NW 14:14:55 10° W visible
30 Jan 4.0 11:51:17 10° NNE 11:56:11 45° E 12:01:03 10° S visible
30 Jan 3.7 13:30:36 10° N 13:35:04 32° WNW 13:39:31 10° WSW visible
31 Jan 6.0 00:53:19 10° WSW 00:55:53 14° W 00:58:28 10° NW visible
31 Jan 5.1 11:14:56 10° NE 11:19:00 23° E 11:23:02 10° SE visible
31 Jan 3.0 12:53:24 10° N 12:58:24 59° WNW 13:03:23 10° SSW visible
01 Feb 5.9 10:39:48 10° ENE 10:41:36 12° E 10:43:25 10° ESE visible
01 Feb 3.1 12:16:26 10° NNE 12:21:33 73° ESE 12:26:37 10° S visible
01 Feb 4.2 13:56:18 10° N 14:00:05 22° WNW 14:03:52 10° WSW visible
02 Feb 4.4 11:39:47 10° NNE 11:44:31 37° E 11:49:12 10° SSE visible
02 Feb 3.5 13:18:52 10° N 13:23:33 38° WNW 13:28:12 10° SW visible
